Weather History for PABL - September, 2013

Change the Weather History Date:

Friday, September 20, 2013

  Actual Average (PASK) Record (PASK)
Temperature  
Mean Temperature 27 °F -  
Max Temperature 35 °F 43 °F 57 °F (2010)
Min Temperature 19 °F 32 °F 24 °F (2003)
Degree Days  
Heating Degree Days 38    
Moisture  
Dew Point 22 °F    
Average Humidity 76    
Maximum Humidity 93    
Minimum Humidity 56    
Precipitation  
Precipitation 0.00 in - - ()
Sea Level Pressure  
Sea Level Pressure 29.48 in    
Wind  
Wind Speed 3 mph (SE)    
Max Wind Speed 7 mph    
Max Gust Speed -    
Visibility 10 miles    
Events      
Averages and records for this station are not official NWS values.
T = Trace of Precipitation, MM = Missing Value Source: NWS Daily Summary

Daily Weather History Graph

Daily Weather History Graph

Search for Another Location

Airport or City:

Trip Planner

Search our weather history database for the weather conditions in past years. The results will help you decide how hot, cold, wet, or windy it might be!

Date:

Astronomy

Sep. 20, 2013 Rise Set
Actual Time 8:22 AM AKDT 8:51 PM AKDT
Civil Twilight 7:30 AM AKDT 9:43 PM AKDT
Nautical Twilight 6:25 AM AKDT 10:47 PM AKDT
Astronomical Twilight 5:07 AM AKDT 12:03 AM AKDT
Moon 8:30 PM AKDT (9/20) 10:43 AM AKDT (9/20)
Length of Visible Light 14h 12m
Length of Day
12h 29m
Full, 98% of the Moon is Illuminated
Sep 20
Full
Sep 26
Last Quarter
Oct 4
New
Oct 11
First Quarter
Oct 18
Full

Hourly Weather History & Observations

Time (AKDT) Temp. Windchill Dew Point Humidity Pressure Visibility Wind Dir Wind Speed Gust Speed Precip Events Conditions
12:16 AM 26.6 °F 21.2 °F 21.2 °F 80% 29.66 in 10.0 mi East 4.6 mph - N/A   Scattered Clouds
12:36 AM 24.8 °F 20.5 °F 19.4 °F 80% 29.66 in 10.0 mi ESE 3.5 mph - N/A   Clear
12:56 AM 23.0 °F 17.0 °F 19.4 °F 86% 29.66 in 10.0 mi East 4.6 mph - N/A   Partly Cloudy
1:16 AM 24.8 °F 19.1 °F 19.4 °F 80% 29.66 in 10.0 mi ESE 4.6 mph - N/A   Mostly Cloudy
1:36 AM 23.0 °F 18.4 °F 19.4 °F 86% 29.65 in 10.0 mi East 3.5 mph - N/A   Overcast
1:56 AM 23.0 °F - 19.4 °F 86% 29.65 in 10.0 mi Calm Calm - N/A   Overcast
2:16 AM 23.0 °F - 19.4 °F 86% 29.64 in 10.0 mi Calm Calm - N/A   Overcast
2:36 AM 23.0 °F 18.4 °F 19.4 °F 86% 29.64 in 10.0 mi East 3.5 mph - N/A   Mostly Cloudy
2:56 AM 21.2 °F 16.4 °F 19.4 °F 93% 29.64 in 10.0 mi ESE 3.5 mph - N/A   Partly Cloudy
3:16 AM 21.2 °F - 17.6 °F 86% 29.63 in 10.0 mi Calm Calm - N/A   Clear
3:36 AM 21.2 °F - 17.6 °F 86% 29.63 in 10.0 mi Calm Calm - N/A   Clear
3:56 AM 21.2 °F 16.4 °F 19.4 °F 93% 29.62 in 10.0 mi ESE 3.5 mph - N/A   Clear
4:16 AM 21.2 °F - 17.6 °F 86% 29.62 in 10.0 mi Calm Calm - N/A   Clear
4:36 AM 19.4 °F - 17.6 °F 93% 29.61 in 10.0 mi Calm Calm - N/A   Clear
4:56 AM 21.2 °F - 17.6 °F 86% 29.61 in 10.0 mi Calm Calm - N/A   Clear
5:16 AM 21.2 °F 16.4 °F 17.6 °F 86% 29.61 in 10.0 mi ESE 3.5 mph - N/A   Clear
5:36 AM 21.2 °F - 17.6 °F 86% 29.60 in 10.0 mi Calm Calm - N/A   Clear
5:56 AM 19.4 °F - 17.6 °F 93% 29.59 in 10.0 mi Calm Calm - N/A   Mostly Cloudy
6:16 AM 21.2 °F - 17.6 °F 86% 29.59 in 10.0 mi Calm Calm - N/A   Overcast
6:36 AM 21.2 °F 16.4 °F 19.4 °F 93% 29.58 in 10.0 mi South 3.5 mph - N/A   Overcast
6:56 AM 23.0 °F 18.4 °F 19.4 °F 86% 29.57 in 10.0 mi SSE 3.5 mph - N/A   Overcast
7:16 AM 23.0 °F 17.0 °F 19.4 °F 86% 29.57 in 10.0 mi SE 4.6 mph - N/A   Overcast
7:36 AM 23.0 °F 17.0 °F 19.4 °F 86% 29.56 in 10.0 mi SE 4.6 mph - N/A   Overcast
7:56 AM 24.8 °F 20.5 °F 19.4 °F 80% 29.56 in 10.0 mi SE 3.5 mph - N/A   Overcast
8:16 AM 24.8 °F 20.5 °F 19.4 °F 80% 29.55 in 10.0 mi ESE 3.5 mph - N/A   Overcast
8:36 AM 24.8 °F 19.1 °F 19.4 °F 80% 29.55 in 10.0 mi SSE 4.6 mph - N/A   Overcast
8:56 AM 24.8 °F 19.1 °F 19.4 °F 80% 29.54 in 10.0 mi SE 4.6 mph - N/A   Overcast
9:16 AM 24.8 °F 17.9 °F 19.4 °F 80% 29.53 in 10.0 mi SE 5.8 mph - N/A   Overcast
9:36 AM 24.8 °F - 21.2 °F 86% 29.53 in 10.0 mi Calm Calm - N/A   Overcast
9:56 AM 26.6 °F - 21.2 °F 80% 29.52 in 10.0 mi Calm Calm - N/A   Overcast
10:16 AM 26.6 °F 21.2 °F 21.2 °F 80% 29.52 in 10.0 mi SE 4.6 mph - N/A   Overcast
10:36 AM 26.6 °F 20.0 °F 21.2 °F 80% 29.52 in 10.0 mi SSE 5.8 mph - N/A   Overcast
10:56 AM 26.6 °F 20.0 °F 23.0 °F 86% 29.51 in 10.0 mi SE 5.8 mph - N/A   Overcast
11:16 AM 26.6 °F 19.1 °F 23.0 °F 86% 29.50 in 10.0 mi SE 6.9 mph - N/A   Overcast
11:36 AM 28.4 °F 22.2 °F 23.0 °F 80% 29.50 in 10.0 mi SE 5.8 mph - N/A   Overcast
11:56 AM 28.4 °F 21.2 °F 24.8 °F 86% 29.49 in 10.0 mi SE 6.9 mph - N/A   Overcast
12:16 PM 30.2 °F 24.3 °F 23.0 °F 75% 29.48 in 10.0 mi SSE 5.8 mph - N/A   Overcast
12:36 PM 30.2 °F 24.3 °F 23.0 °F 75% 29.48 in 10.0 mi SE 5.8 mph - N/A   Overcast
12:56 PM 30.2 °F 25.4 °F 23.0 °F 75% 29.47 in 10.0 mi SSE 4.6 mph - N/A   Overcast
1:16 PM 32.0 °F 26.4 °F 23.0 °F 69% 29.46 in 10.0 mi SE 5.8 mph - N/A   Overcast
1:36 PM 33.8 °F 30.8 °F 23.0 °F 65% 29.45 in 10.0 mi SSE 3.5 mph - N/A   Overcast
1:56 PM 33.8 °F 30.8 °F 23.0 °F 65% 29.44 in 10.0 mi South 3.5 mph - N/A   Overcast
2:16 PM 33.8 °F - 23.0 °F 65% 29.43 in 10.0 mi Calm Calm - N/A   Overcast
2:36 PM 35.6 °F 31.7 °F 23.0 °F 60% 29.43 in 10.0 mi SE 4.6 mph - N/A   Overcast
2:56 PM 35.6 °F - 21.2 °F 56% 29.42 in 10.0 mi Calm Calm - N/A   Overcast
3:16 PM 35.6 °F - 21.2 °F 56% 29.41 in 10.0 mi Calm Calm - N/A   Overcast
3:36 PM 35.6 °F - 23.0 °F 60% 29.41 in 10.0 mi Calm Calm - N/A   Overcast
3:56 PM 35.6 °F - 21.2 °F 56% 29.40 in 10.0 mi Calm Calm - N/A   Overcast
4:16 PM 35.6 °F - 23.0 °F 60% 29.39 in 10.0 mi Calm Calm - N/A   Overcast
4:36 PM 35.6 °F 32.8 °F 21.2 °F 56% 29.38 in 10.0 mi South 3.5 mph - N/A   Overcast
4:56 PM 35.6 °F - 23.0 °F 60% 29.38 in 10.0 mi Calm Calm - N/A   Overcast
5:16 PM 35.6 °F - 21.2 °F 56% 29.37 in 10.0 mi Calm Calm - N/A   Overcast
5:36 PM 35.6 °F - 23.0 °F 60% 29.37 in 10.0 mi Calm Calm - N/A   Overcast
5:56 PM 35.6 °F - 21.2 °F 56% 29.36 in 10.0 mi Calm Calm - N/A   Overcast
6:16 PM 35.6 °F - 21.2 °F 56% 29.36 in 10.0 mi Calm Calm - N/A   Overcast
6:36 PM 35.6 °F 30.7 °F 23.0 °F 60% 29.35 in 10.0 mi NW 5.8 mph - N/A   Overcast
6:56 PM 35.6 °F - 23.0 °F 60% 29.35 in 10.0 mi Calm Calm - N/A   Overcast
7:16 PM 35.6 °F 32.8 °F 23.0 °F 60% 29.35 in 10.0 mi West 3.5 mph - N/A   Overcast
7:36 PM 33.8 °F 30.8 °F 24.8 °F 70% 29.34 in 10.0 mi WNW 3.5 mph - N/A   Overcast
7:56 PM 33.8 °F 30.8 °F 24.8 °F 70% 29.34 in 10.0 mi West 3.5 mph - N/A   Overcast
8:16 PM 33.8 °F - 24.8 °F 70% 29.33 in 10.0 mi Calm Calm - N/A   Overcast
8:36 PM 33.8 °F 30.8 °F 24.8 °F 70% 29.33 in 10.0 mi NW 3.5 mph - N/A   Overcast
8:56 PM 33.8 °F 30.8 °F 24.8 °F 70% 29.33 in 10.0 mi NW 3.5 mph - N/A   Overcast
9:16 PM 33.8 °F 30.8 °F 24.8 °F 70% 29.32 in 10.0 mi NW 3.5 mph - N/A   Overcast
9:36 PM 32.0 °F 28.7 °F 24.8 °F 75% 29.31 in 10.0 mi NW 3.5 mph - N/A   Overcast
9:56 PM 32.0 °F 28.7 °F 24.8 °F 75% 29.31 in 10.0 mi NW 3.5 mph - N/A   Overcast
10:16 PM 30.2 °F - 24.8 °F 80% 29.31 in 10.0 mi Calm Calm - N/A   Overcast
10:36 PM 32.0 °F - 26.6 °F 80% 29.31 in 10.0 mi Calm Calm - N/A   Overcast
10:56 PM 32.0 °F - 26.6 °F 80% 29.30 in 10.0 mi Calm Calm - N/A   Overcast
11:16 PM 30.2 °F 26.7 °F 26.6 °F 86% 29.29 in 10.0 mi South 3.5 mph - N/A   Overcast
11:36 PM 30.2 °F - 26.6 °F 86% 29.29 in 10.0 mi Calm Calm - N/A   Mostly Cloudy
11:56 PM 30.2 °F - 26.6 °F 86% 29.28 in 10.0 mi Calm Calm - N/A   Mostly Cloudy